www.pogodaiklimat.ru

Погода и климат >> Архив погоды >> Украина >> Киев


АРХИВ ПОГОДЫ в Киеве

Время (UTC), дата Ветер
(напр.,м/с)
 
Видим.   Явления Облачность Т
(С)
Тd
(С)
f
(%)
Тe
(С)
Тes
(С)
Комфортность P
(гПа)
Po
(гПа)
Тmin
(С)
Tmax
(С)
R
(мм)
R24
(мм)
S
(см)
12 11.06 ЮВ 3 20 км 6/6 600 м
[Cb cap]
+30.2 +15.5 41 +33 +38 душно 1017.8 998.9
15 11.06 В 3 20 км 5/5 1000 м
[Cu med, cong]
+29.8 +14.8 40 +32 +34 душно 1017.0 998.1
18 11.06 В 2 20 км 3/0
[Ac lent Ci fib]
+27.4 +14.7 46 +30 +30 жарко 1017.2 998.2 +31.3
21 11.06 В 1 20 км ясно +24.7 +15.5 57 +28 +28 душно 1017.8 998.6
00 12.06 СВ 2 20 км ясно +22.8 +15.9 65 +27 +27 душно 1017.3 998.0
03 12.06 В 1 20 км ясно +21.7 +15.9 70 +25 +26 комфорт 1017.1 997.7
06 12.06 СВ 2 20 км ясно +25.6 +16.7 58 +29 +37 душно 1017.2 998.1 +21.3
09 12.06 В 3 20 км 6/6 1000 м
[Cu med, cong]
+28.9 +16.6 47 +32 +38 душно 1016.5 997.6
12 12.06 Ю 2 20 км 6/6 1000 м
[Cu med, cong]
+30.9 +15.4 39 +33 +39 душно 1015.3 996.5
15 12.06 В 2 20 км 3/3 1000 м
[Cb calv]
+29.8 +16.4 44 +33 +36 душно 1014.4 995.6
18 12.06 штиль 0 20 км ясно +26.3 +15.5 51 +29 +29 жарко 1015.0 996.0 +31.2
21 12.06 С 2 20 км ясно +23.2 +15.8 63 +28 +28 душно 1016.3 997.0
00 13.06 С 1 20 км 8/0
[Ci]
+21.6 +16.0 70 +25 +25 комфорт 1016.3 996.9
03 13.06 С 1 20 км 9/0
[Cs]
+22.3 +16.2 68 +26 +27 жарко 1016.5 997.2
06 13.06 СВ 2 20 км 4/0
[Ci]
+27.2 +16.8 53 +31 +38 душно 1017.0 998.0 +21.1
09 13.06 ЮВ 2 20 км 3/0
[Ci sp]
+30.5 +13.3 35 +32 +48 жарко 1017.3 998.5
12 13.06 ЮВ 1 20 км 8/1 1000 м
[Cu med, cong Ci sp]
+30.6 +14.2 37 +32 +45 жарко 1017.1 998.3
15 13.06 Ю 2 20 км 9/1 1000 м
[Cu med, cong Ac As]
+28.2 +16.7 50 +32 +33 душно 1017.2 998.2
18 13.06 З 2 20 км 8/0
[Ci]
+25.4 +17.1 60 +29 +29 душно 1017.6 998.5 +32.3
21 13.06 штиль 0 20 км ясно +24.8 +17.3 63 +29 +29 душно 1019.0 999.8
00 14.06 ЮВ 1 20 км ясно +22.2 +18.6 80 +27 +27 душно 1019.4 1000.0
03 14.06 ЮВ 1 20 км 8/0
[Ci fib]
+21.2 +18.2 83 +25 +26 комфорт 1019.0 999.6
06 14.06 Ю 1 20 км 8/0
[Ci fib]
+25.0 +18.7 68 +30 +38 душно 1019.4 1000.2 +20.1
09 14.06 Ю 2 20 км 8/3 1000 м
[Cu med, cong Ci fib]
+29.0 +17.1 49 +33 +43 очень
душно
1019.1 1000.2
12 14.06 Ю 2 20 км {гроза} 8/6 600 м
[Cb calv Ci fib]
+30.8 +17.9 46 +35 +40 очень
душно
1018.2 999.4
15 14.06 ЮЗ 2 20 км {гроза} 5/4 600 м
[Cu med, cong Ci fib]
+30.1 +16.6 44 +33 +36 душно 1017.4 998.6
18 14.06 З 1 20 км {гроза} 5/0
[Ci fib]
+25.7 +17.6 61 +30 +30 душно 1017.1 998.0 +31.2
21 14.06 С 2 20 км ясно +24.3 +17.1 64 +28 +28 душно 1017.9 998.7
00 15.06 СЗ 1 20 км ясно +23.1 +15.8 63 +27 +27 душно 1017.0 997.7
03 15.06 СЗ 1 20 км 3/0
[Ci sp]
+22.5 +16.8 70 +27 +28 душно 1016.4 997.1
06 15.06 СВ 2 20 км 5/0
[Ac cast Ci fib]
+26.3 +18.1 61 +31 +37 душно 1016.1 997.1 +22.2
09 15.06 СВ 3 20 км 3/1 1000 м
[Cu hum Ci]
+29.3 +15.1 42 +32 +44 душно 1015.8 996.9
12 15.06 В 3 20 км 4/3 1000 м
[Cu med, cong Ci sp]
+31.8 +5.6 19 +30 +38 жарко 1014.0 995.3
15 15.06 В 2 20 км 6/4 600 м
[Cb cap Ac cast Ci sp]
+30.2 +10.0 29 +30 +32 жарко 1013.4 994.6
18 15.06 С 1 20 км 4/3 1000 м
[Sc diur, vesp Ci sp]
+27.4 +11.4 37 +28 +28 жарко 1013.5 994.5 +32.3
21 15.06 З 1 20 км ясно +23.5 +11.9 48 +25 +25 комфорт 1013.7 994.5
00 16.06 С 1 20 км ясно +21.7 +13.4 59 +24 +24 комфорт 1013.7 994.4
03 16.06 В 1 20 км 4/0
[Ac cast Ci sp]
+21.9 +12.8 56 +24 +25 комфорт 1013.3 994.0
06 16.06 штиль 0 20 км 9/3 600 м
[Cb cap Ac und]
+23.7 +15.0 58 +27 +30 жарко 1013.9 994.7 +21.2
09 16.06 В 2 20 км 9/1 1000 м
[Cu hum Cs]
+27.6 +15.4 47 +30 +43 жарко 1014.0 995.1
12 16.06 СВ 3 20 км 9/3 1000 м
[Cu hum Cs]
+29.2 +15.6 44 +32 +39 душно 1013.4 994.6
15 16.06 СВ 3 20 км 8/0
[Ci]
+28.8 +13.0 38 +30 +33 жарко 1013.0 994.1
18 16.06 Ю 1 20 км 6/0
[Ac lent Cc]
+25.8 +13.6 47 +28 +28 жарко 1013.5 994.4 +29.7
21 16.06 Ю 1 20 км 3/0
[Ci fib]
+21.9 +13.2 58 +25 +25 комфорт 1014.6 995.3
00 17.06 штиль 0 20 км 6/0
[Ac trans Ci fib]
+21.1 +13.7 63 +24 +24 комфорт 1014.4 995.0
03 17.06 штиль 0 20 км 8/0
[Ac lent Cc]
+19.8 +13.7 68 +21 +22 комфорт 1015.6 996.1
06 17.06 Ю 2 20 км 8/0
[Ac trans Cc]
+22.8 +15.5 63 +27 +32 душно 1015.6 996.3 +19.6
09 17.06 ЮЗ 2 20 км 1/0
[Ac trans]
+28.4 +13.9 41 +30 +46 жарко 1015.0 996.1
12 17.06 Ю 3 20 км 4/4 1000 м
[Cu med, cong]
+30.8 +18.3 47 +35 +43 очень
душно
1013.6 994.9
15 17.06 ЮЗ 2 20 км гроза без осадков 9/3 600 м
[Cb cap Ac lent Ci fib]
+24.7 +18.2 67 +29 +31 душно 1014.1 995.0
18 17.06 ЮЗ 2 20 км {гроза} 9/0
[Ci]
+23.4 +19.5 79 +30 +30 очень
душно
1014.4 995.2 +31.3
21 17.06 С 3 20 км 8/0
[Cs]
+24.1 +17.2 65 +28 +28 душно 1015.1 995.9
00 18.06 С 3 20 км 3/0
[Ci fib]
+22.4 +16.9 71 +27 +27 душно 1016.0 996.7
03 18.06 С 3 20 км ясно +20.0 +15.8 77 +23 +23 комфорт 1016.9 997.4
06 18.06 С 3 20 км ясно +22.2 +15.7 67 +26 +33 душно 1017.0 997.7 +20.0
09 18.06 В 5 20 км 3/3 1000 м
[Cu hum]
+24.7 +15.5 57 +28 +34 душно 1017.0 997.8

 

Местоположение метеостанции Киев (город Киев, Украина): широта 50.40 долгота 30.57 высота над уровнем моря 167 м.

В архиве по умолчанию представлена погода в Киеве за последнюю неделю. Архивные данные за месяц целиком и за предыдущие месяцы, начиная с января 2011 года, Вы можете получить, выбрав интересующий диапазон дат из раскрывающегося списка и нажав кнопку "Ввод!".


*Определитесь, кто Вы:
робот инопланетянин человек

Внимание! Время в таблицах - всемирное. Для получения местного времени необходимо прибавить поправку, которая равна 2 ч.

Смотрите также архив погоды в соседних городах и на ближайших метеорологических станциях:

Погода в Вышгороде (Киевская область, Украина) (21 км)
Погода в Борисполе (Киевская область, Украина) (29 км)
Погода в Барышевке (Киевская область, Украина) (54 км)
Погода в Фастове (Киевская область, Украина) (58 км)
Погода в Остере (Черниговская область, Украина) (65 км)
Погода в Тетереве (Киевская область, Украина) (78 км)
Погода в Белой Церкви (Киевская область, Украина) (79 км)
Погода в Мироновке (Киевская область, Украина) (87 км)
Погода в Яготине (Киевская область, Украина) (90 км)
Погода в Чернобыле (Киевская область, Украина) (101 км)

Пояснения к столбцам:

Ветер - указаны скорость ветра в м/с - средняя за 10 мин, порывы в срок и между сроками (в фигурных скобках) и направление, откуда дует ветер: С - северный, СВ - северо-восточный, В - восточный, ЮВ - юго-восточный, Ю - южный, ЮЗ - юго-западный, З - западный, СЗ - северо-западный.
Видимость - горизонтальная дальность видимости в метрах или километрах. При видимости от 1 до 10 км при отсутствии осадков обычно наблюдается дымка, при ухудшении видимости до 1 км и менее - туман. В сухую погоду видимость может ухудшаться дымом, пылью или мглою.
Явления - указаны атмосферные явления, наблюдавшиеся в срок или в последний час перед сроком; фигурными скобками обозначены явления, наблюдавшиеся между сроками (за 1-3 часа до срока); квадратными скобками обозначены град или гололедные отложения с указанием их диаметра в мм.
Облачность - указаны через наклонную черту общая и нижняя облачность в баллах и высота нижней границы облаков в метрах; квадратными скобками обозначены формы облаков: Ci - перистые, Cs - перисто-слоистые, Cc - перисто-кучевые, Ac - высококучевые, As - высокослоистые, Sc - слоисто-кучевые, Ns - слоисто-дождевые, Cu - кучевые, Cb - кучево-дождевые. Подробнее классификацию облаков см. в Атласе облаков (PDF).
T - Температура воздуха - температура, измеренная на высоте 2 м над землей.
Td - Температура точки росы - температура, при понижении до которой содержащийся в воздухе водяной пар достигнет насыщения.
f - Относительная влажность воздуха - влажноcть воздуха, измеренная на высоте 2 м над землей.
Te - Эффективная температура - температура, которую ощущает одетый по сезону человек в тени. Характеристика душности погоды. При расчете учитывается влияние влажности воздуха и скорости ветра на теплоощущения человека.
Tes - Эффективная температура на солнце - температура, которую ощущает человек, с поправкой на солнечный нагрев. Характеристика знойности погоды. Зависит от высоты солнца над горизонтом, облачности и скорости ветра. Ночью, в пасмурную погоду, а также при ветре 12 м/с и более поправка равна нулю.
P - Атмосферное давление - приведенное к уровню моря атмосферное давление.
Po - Атмосферное давление - измеренное на уровне метеостанции атмосферное давление.
Tmin - Минимальная температура - минимум температуры воздуха на высоте 2 м над землей.
Tmax - Максимальная температура - максимум температуры воздуха на высоте 2 м над землей.
R - Количество осадков - Количество выпавших осадков за период времени, мм. При наведении курсора мыши на число - период времени, за который выпало указанное количество осадков.
R24 - Количество осадков - Количество выпавших осадков за 24 часа, мм.
S - Снежный покров - Высота снежного покрова, см. При наведении курсора мыши на число - состояние снежного покрова и степень покрытия местности в баллах.